Regional Weather Roundup
Issued by NWS

Home | Current Version | Previous Version | Graphics & Text | Print | Product List | Glossary On
Versions: 1 2 3 4 5 6 7 8 9 10 11 12 13 14 15 16 17 18 19 20 21 22 23 24 25 26 27 28 29 30 31 32 33 34 35 36 37 38 39 40 41 42 43 44 45 46 47 48 49 50
176
ASUS45 KBOU 272207
RWRCO

WEATHER ROUNDUP FOR COLORADO
NATIONAL WEATHER SERVICE DENVER/BOULDER CO
300 PM MST MON FEB 27 2017

NOTE: "FAIR" INDICATES FEW OR NO CLOUDS BELOW 12000 FEET WITH NO
SIGNIFICANT WEATHER AND/OR OBSTRUCTIONS TO VISIBILITY.

COZ001>005-013-030-031-272300-
...NORTHWEST COLORADO...

CITY           SKY/WX    TMP DP  RH WIND       PRES   REMARKS
CRAIG          LGT SNOW  27  21  78 NW14G20   29.62R WCI  16
HAYDEN         PTSUNNY   30  19  64 NW15G23   29.55R WCI  19
MEEKER         CLOUDY    41  27  57 SW22G33   29.59R
MOUNT WERNER   NOT AVBL
STEAMBOAT SPGS CLOUDY    35  19  53 SW10G20   29.55S WCI  27
WALDEN         NOT AVBL
$$

COZ006>008-011-272300-
...WEST CENTRAL VALLEYS...

CITY           SKY/WX    TMP DP  RH WIND       PRES   REMARKS
GRAND JUNCTION CLOUDY    48  23  37 SW17G36   29.65F
MONTROSE       PTSUNNY   45  19  35 SW22G38   29.72R
EAGLE          CLOUDY    37  19  48 SW23G38   29.62F
RIFLE          CLOUDY    42  26  53 W8        29.64F
DELTA          PTSUNNY   51  20  29 SW23G29   29.69F
NUCLA          FAIR      45  18  33 SW26G38   29.74F
$$

COZ017>023-064>068-272300-
...SOUTHWEST COLORADO...

CITY           SKY/WX    TMP DP  RH WIND       PRES   REMARKS
DURANGO        PTSUNNY   40  18  41 SW12      29.83F
CORTEZ         CLOUDY    46  21  37 SW21G31   29.80F
PAGOSA SPRINGS CLOUDY    35  21  55 SW10      29.83F WCI  28
TELLURIDE      PTSUNNY   31  15  53 SW14G23   29.77R WCI  20
WOLF CREEK PAS CLOUDY    14  12  92 MISG      29.76S
$$

COZ009-010-012-014-032>034-037-058>063-272300-
...CENTRAL COLORADO...

CITY           SKY/WX    TMP DP  RH WIND       PRES   REMARKS
ASPEN          CLOUDY    33  20  58 S20G28    29.63R WCI  21
BUENA VISTA    PTSUNNY   37   4  24 S14G22    29.64S
COPPER MTN     NOT AVBL
BERTHOUD PASS  CLOUDY    12   3  67 W26G48    29.57F WCI  -8
COTTONWOOD PAS CLOUDY    32   5  32 S10G23    29.65S WCI  24
GUNNISON       FAIR      17   7  64 E9        29.73S WCI   6
KREMMLING      LGT SNOW  36  28  75 SW15G26   29.61R
LEADVILLE      CLOUDY    25   5  42 S15       29.60F WCI  13
MONARCH PASS   CLOUDY    14   9  79 W28G37    29.76S WCI  -6
SALIDA         FAIR      42   8  24 W10G21    29.72S
SUNLIGHT       NOT AVBL
WILKERSON PASS PTSUNNY   27   1  33 SW15G25   29.64R WCI  15
$$

COZ069>075-272300-
...SAN LUIS VALLEY/SANGRE DE CRISTO MOUNTAINS...

CITY           SKY/WX    TMP DP  RH WIND       PRES   REMARKS
ALAMOSA        FAIR      40  20  44 SW28G40   29.77F
LA VETA PASS   CLOUDY    27  14  59 S33G56    29.72S WCI   9
SAGUACHE       FAIR      37  14  38 SW20G29   29.70S
$$

COZ035-036-038>040-272300-
...NORTHERN COLORADO FRONT RANGE...

CITY           SKY/WX    TMP DP  RH WIND       PRES   REMARKS
DENVER INTL AP PTSUNNY   54   6  14 NW8G24    29.50R
DMNS CITY PARK   N/A     54   6  14 W2G15     29.50S
AURORA         PTSUNNY   56   2  11 SW21G35   29.50F
FRONT RANGE AP PTSUNNY   57   5  12 SW23G31   29.51
ERIE MUNI ARPT FAIR      52   6  15 CALM      29.50F
BOULDER MUN AP FAIR      50  14  23 SE3       29.50F
CENTENNIAL     FAIR      53   0  11 SW26G37   29.51F
BROOMFIELD     PTSUNNY   50  12  22 NE6       29.51F
FORT COLLINS   FAIR      54  12  19 W13       29.51F
LONGMONT       NOT AVBL
$$

COZ041-046-047-076>085-087-088-272300-
...PIKES PEAK/PALMER DIVIDE AND SOUTHERN FOOTHILLS...

CITY           SKY/WX    TMP DP  RH WIND       PRES   REMARKS
COLO. SPRINGS  PTSUNNY   54   4  13 S25G31    29.58F
A. F. ACADEMY  FAIR      51  -1  11 SW13G24   29.56F
SCHRIEVER AFB  FAIR      53   3  13 SW24G36   29.59F
ELLICOTT       FAIR     N/A N/A N/A SW29G35   29.59S
FALCON         FAIR      49   2  14 SW21G29   29.60S
FORT CARSON    FAIR      54   3  12 SW23G33   29.56F
LIMON          FAIR      68   5   8 SW26G40   29.55F
MONUMENT HILL  FAIR      46   9  21 SW23G30   29.58F
TRINIDAD       FAIR      60  -3   8 W26G41    29.65F
$$

COZ042>045-048>051-090-091-272300-
...NORTHEAST COLORADO...

CITY           SKY/WX    TMP DP  RH WIND       PRES   REMARKS
GREELEY ARPT   FAIR      54  12  18 W10       29.51F
AKRON          FAIR      58  10  15 S14       29.52F
BURLINGTON     FAIR      59  13  16 SW20      29.60F
WRAY           NOT AVBL
STERLING       FAIR      57  18  21 S9        29.51F
HOLYOKE        FAIR      59  14  17 S13G18    29.57F
FORT MORGAN    FAIR      58   8  13 S6        29.50F
$$

COZ086-089-092>099-272300-
...SOUTHEAST COLORADO...

CITY           SKY/WX    TMP DP  RH WIND       PRES   REMARKS
PUEBLO         FAIR      58  13  17 SW32G41   29.59F
LA JUNTA       FAIR      63   9  12 W32G43    29.60S
LAMAR          FAIR      66   9  10 SW15G23   29.58F
SPRINGFIELD      N/A     65   6  10 W18G33    29.64F
$$




USA.gov is the U.S. government's official web portal to all federal, state and local government web resources and services.